Regional Weather Roundup
Issued by NWS

Home | Current Version | Previous Version | Text Only | Print | Product List | Glossary Off
Versions: 1 2 3 4 5 6 7 8 9 10 11 12 13 14 15 16 17 18 19 20 21 22 23 24 25 26 27 28 29 30 31 32 33 34 35 36 37 38 39 40 41 42 43 44 45 46 47 48 49 50

603
ASUS43 KOAX 301402
RWRNE

WEATHER ROUNDUP FOR NEBRASKA
NATIONAL WEATHER SERVICE OMAHA NE
900 AM CDT SUN APR 30 2017

NOTES: SATELLITE DATA IS BEING USED TO AUGMENT CLOUD COVER ABOVE
       12000 FEET.
       "FAIR" INDICATES FEW OR NO CLOUDS BELOW 12,000 FEET WITH NO
       SIGNIFICANT WEATHER AND/OR OBSTRUCTIONS TO VISIBILITY.

  * THESE STATIONS DO NOT REPORT WEATHER SUCH AS RAIN...SNOW OR FOG.

NEZ001>004-019>022-054>056-301500-
NEBRASKA PANHANDLE

CITY           SKY/WX    TMP DP  RH WIND       PRES   REMARKS
SCOTTSBLUFF    CLOUDY    36  24  62 W9        30.00F WCI  29
ALLIANCE       CLOUDY    35  26  69 N16       29.96F WCI  25
CHADRON        SUNNY     35  28  75 CALM      30.03F
KIMBALL        CLOUDY    35  21  56 N20G25    29.97R WCI  25
SIDNEY         CLOUDY    36  23  59 N21G30    29.94F WCI  25
$$

NEZ057>060-069>072-079>082-301500-
SOUTHWEST NEBRASKA

CITY           SKY/WX    TMP DP  RH WIND       PRES   REMARKS
NORTH PLATTE   CLOUDY    40  24  53 N22G32    29.79F WCI  30
IMPERIAL       CLOUDY    38  23  55 N24G39    29.81F WCI  27
LEXINGTON      LGT SNOW  37  31  81 N31G38    29.71F WCI  23
MCCOOK         CLOUDY    36  31  82 N26G35    29.72R WCI  24
OGALLALA       CLOUDY    40  24  53 N21G30    29.86F WCI  31
$$

NEZ005>010-023>029-035>040-094-301500-
NORTH CENTRAL NEBRASKA

CITY           SKY/WX    TMP DP  RH WIND       PRES   REMARKS
VALENTINE      CLOUDY    41  23  48 N12       29.96F
AINSWORTH      CLOUDY    39  27  61 N18G28    29.89F WCI  30
BROKEN BOW     CLOUDY    40  27  59 N26G38    29.78F WCI  29
O`NEILL        PTSUNNY   41  26  55 N20G25    29.88F
ORD            LGT RAIN  39  31  72 NE22G38   29.80F WCI  29
THEDFORD       CLOUDY    40  25  54 N16G29    29.86F WCI  32
$$

NEZ041-046>049-061>064-073>077-083>087-301500-
SOUTH CENTRAL NEBRASKA

CITY           SKY/WX    TMP DP  RH WIND       PRES   REMARKS
GRAND ISLAND   RAIN      35  35 100 N30G38    29.72F FOG     WCI  22
AURORA         LGT RAIN  36  36  99 NE33G41   29.67F WCI  23
HASTINGS       LGT SNOW  37  34  89 N32G46    29.63F FOG     WCI  24
HEBRON         RAIN      37  37  97 NE33G44   29.54F WCI  24
HOLDREGE       MIX PCPN  33  33  96 N38G51    29.62F WCI  18
KEARNEY *      CLOUDY   N/A N/A N/A N35G41    29.66F
YORK           MIX PCPN  37  37 100 NE36G41   29.66F WCI  24
$$

NEZ011>018-030>034-042>045-301500-
NORTHEAST NEBRASKA

CITY           SKY/WX    TMP DP  RH WIND       PRES   REMARKS
NORFOLK        RAIN      37  34  89 NE20G25   29.82F FOG     WCI  27
ALBION         LGT RAIN  37  34  88 N18G28    29.82S WCI  27
BLAIR          LGT RAIN  39  37  95 NE23G33   29.74F WCI  28
FREMONT        RAIN      39  38  99 NE15G26   29.78F WCI  30
TEKAMAH        LGT RAIN  39  37  92 NE21      29.82S FOG     WCI  29
WAYNE          RAIN      39  38  99 N18       29.86S WCI  29
$$

NEZ050>053-065>068-078-088>093-301500-
SOUTHEAST NEBRASKA

CITY           SKY/WX    TMP DP  RH WIND       PRES   REMARKS
LINCOLN        LGT RAIN  39  37  92 N23       29.70F FOG     WCI  28
OMAHA EPPLEY   LGT RAIN  40  35  83 NE22G32   29.76S VSB 1   WCI  30
BEATRICE       CLOUDY    40  38  94 NE31G44   29.57F WCI  28
FALLS CITY     CLOUDY    42  40  92 NE18G41   29.55F
NEBRASKA CITY  LGT RAIN  39  39 100 NE25G31   29.63F WCI  28
PLATTSMOUTH    RAIN      39  37  90 NE15      29.71F WCI  31
$$

NEZ044-045-051>053-067-301500-
OMAHA AREA

CITY           SKY/WX    TMP DP  RH WIND       PRES   REMARKS
OMAHA EPPLEY   LGT RAIN  40  35  83 NE22G32   29.76S VSB 1   WCI  30
BLAIR          LGT RAIN  39  37  95 NE23G33   29.74F WCI  28
FREMONT        RAIN      39  38  99 NE15G26   29.78F WCI  30
MILLARD        RAIN      41  39  92 NE6G17    29.76S
OFFUTT AFB     LGT RAIN  39  37  92 NE10G23   29.74S FOG     WCI  33
PLATTSMOUTH    RAIN      39  37  90 NE15      29.71F WCI  31
WAHOO          LGT RAIN  38  37  94 NE20G25   29.76S WCI  29
$$




USA.gov is the U.S. government's official web portal to all federal, state and local government web resources and services.